Location: Newark
(47.5833°N, 8.1500°E)
Time: 10:43:39
(UTC+00:00)

Altair - Pass Details

Date: 29 October 2020
Orbit: 1502 x 1682 km, 47.2° (Epoch: 25 November)

Event Time Altitude Azimuth Distance (km) Brightness Sun altitude
Exits shadow 03:29:33 13° 198° (SSW) 3,395 9.0 -27.0°
Maximum altitude 03:36:46 37° 139° (SE) 2,215 8.5 -25.8°
Drops below altitude 10° 03:45:10 10° 76° (ENE) 3,770 10.6 -24.4°
Sets 03:48:34 0° 69° (ENE) 4,783 11.4 -23.9°
